Flag for Germany Weather past 2 weeks in Gorleben, Lower Saxony, Germany

Now
42 °F

Overcast.


Feels Like: 38 °F
Forecast: 32 / 45 °F
Wind: 6 mph from Southwest

Location: Marnitz

Current Time: Mar 4, 2015 at 4:42:26 PM

Latest Report: Mar 4, 2015 at 4:00 PM


Visibility: 19 mi

Pressure: 30.07 "Hg

Humidity: 73%

Dew point: 34 °F

Location of GorlebenLocation

Historic Weather in Gorleben — Graph

°F

Gorleben temperature yesterday

Maximum temperature yesterday: 44 °F (at 2:00 PM)
Minimum temperature yesterday: 34 °F (at 7:00 AM)
Average temperature yesterday: 38 °F

Past Weeks' High & Low Weather Summary

 TemperatureHumidityPressure
High48 °F (Feb 26, 3:00 PM)100% (Feb 18, 12:00 AM)30.70 "Hg (Feb 18, 12:00 AM)
Low29 °F (Feb 20, 5:00 AM)42% (Feb 26, 4:00 PM)29.26 "Hg (Feb 21, 1:00 PM)
Average38 °F82%29.87 "Hg
* Reported Feb 17 3:00 PM — Mar 4 3:00 PM, Gorleben, Weather by CustomWeather, © 2015

Note: Actual official high and low records may vary slightly from our data, if they occured in-between our weather recording intervals... More about our weather records

Advertising

Gorleben weather history for previous 24 hours

 ConditionsComfort  
Time TempWeatherWind HumidityBarometerVisibility
3:00 PM
Wed, Mar 4
41 °FOvercast.3 mph77%30.07 "Hg15 mi
2:00 PM41 °FOvercast.5 mph84%30.07 "Hg9 mi
1:00 PM39 °FOvercast.6 mph83%30.08 "Hg9 mi
12:00 PM38 °FOvercast.5 mph85%30.06 "Hg8 mi
11:00 AM37 °FOvercast.6 mph87%30.06 "Hg12 mi
10:00 AM38 °FOvercast.6 mph81%30.04 "Hg19 mi
9:00 AM35 °FSunny.5 mph86%30.03 "Hg10 mi
8:00 AM34 °FPartly sunny.5 mph92%30.02 "Hg5 mi
7:00 AM33 °FScattered clouds.5 mph94%30.00 "Hg7 mi
6:00 AM33 °FPassing clouds.6 mph91%29.98 "Hg10 mi
5:00 AM34 °FPassing clouds.6 mph93%29.96 "Hg7 mi
4:00 AM35 °FLow clouds.5 mph94%29.94 "Hg10 mi
3:00 AM35 °FOvercast.6 mph89%29.93 "Hg19 mi
2:00 AM35 °FOvercast.6 mph90%29.92 "Hg16 mi
1:00 AM35 °FPassing clouds.6 mph86%29.90 "Hg19 mi
12:00 AM37 °FOvercast.7 mph84%29.89 "Hg22 mi
11:00 PM
Tue, Mar 3
38 °FOvercast.6 mph89%29.86 "Hg12 mi
10:00 PM38 °FOvercast.7 mph93%29.85 "Hg9 mi
9:00 PM38 °FLow clouds.6 mph93%29.84 "Hg15 mi
8:00 PM38 °FDrizzle. Low clouds.6 mph95%29.85 "Hg4 mi
7:00 PM35 °FLight rain. Low clouds.3 mph97%29.88 "Hg3 mi
6:00 PM38 °FLight rain. Overcast.3 mph93%29.89 "Hg4 mi
5:00 PM42 °FOvercast.3 mph64%29.89 "Hg25 mi
4:00 PM43 °FOvercast.5 mph63%29.91 "Hg31 mi
Weather by CustomWeather, © 2015

See weather overviewHow to use our weather pages